[[{"header":{"parameterUnit":"m.s-1","parameterCategory":1,"la1":30.2991,"la2":30.254,"lo1":-89.0895,"lo2":-89.0444,"dy":0.0017,"dx":0.0017,"nx":28,"ny":28,"refTime":"2023-10-03T09:00:00:Z","depth":0,"parameterNumber":2,"parameterNumberName":"U-component_of_WINDS"},"data":[0,0,0,0,0,0,0,0,0,0,0,0,0,0,0,0,0,0,0,0,0,0,0,0,0,0,0,0,0,0,0,0,0,0,0,0,0,0,0,0,0,0,0,0,0,0,0,0,0,0,0,0,0,0,0,0,0,0,-3.2985,-3.2984,0,-3.2944,-3.2944,-3.2943,-3.276,-3.2756,-3.2752,-3.2748,-3.2711,-3.2714,-3.2717,0,0,0,0,0,0,0,0,0,0,0,0,0,-3.2908,-3.291,-3.2985,-3.2984,-3.2984,-3.2944,-3.2944,-3.2943,-3.2761,-3.2756,-3.2751,-3.2746,-3.271,-3.2713,-3.2717,0,0,0,0,0,0,0,0,0,0,0,0,0,-3.2912,-3.2911,-3.2985,-3.2888,-3.2879,-3.2945,-3.2944,-3.2943,-3.2762,-3.2756,-3.2749,-3.2743,-3.2709,-3.2713,-3.2718,-3.2875,0,0,-3.2731,-3.2733,0,0,0,0,0,0,0,0,-3.2912,-3.2915,-3.2903,-3.2895,-3.2885,-3.2851,-3.2903,-3.292,-3.2764,-3.2807,-3.2748,-3.274,-3.2763,-3.2763,-3.2769,-3.2873,-3.2871,-3.2732,-3.2735,-3.2737,-3.2738,0,0,0,0,0,0,0,-3.2912,-3.2916,-3.2969,-3.2903,-3.2892,-3.2848,-3.2841,-3.2905,-3.2822,-3.2803,-3.2789,-3.2787,-3.2757,-3.2765,-3.2767,-3.2871,-3.2732,-3.2736,-3.2739,-3.274,-3.3101,-3.3107,0,0,0,0,0,0,-3.2925,-3.2917,-3.297,-3.2968,-3.2883,-3.2854,-3.2847,-3.2868,-3.282,-3.2807,-3.2792,-3.2778,-3.2761,-3.2762,-3.2765,-3.2946,-3.2736,-3.2741,-3.2743,-3.3094,-3.3102,-3.311,0,0,0,0,0,0,-3.2924,-3.2931,-3.2972,-3.2939,-3.294,-3.2863,-3.2888,-3.2871,-3.2879,-3.2812,-3.2797,-3.2816,-3.2756,-3.2759,-3.2848,-3.2942,-3.2743,-3.2747,-3.3086,-3.3097,-3.3106,-3.3309,0,0,0,0,0,0,-3.2922,-3.2932,-3.299,-3.2941,-3.2943,-3.3055,-3.2894,-3.2875,-3.2887,-3.2868,-3.2831,-3.2819,-3.2751,-3.2843,-3.2853,-3.2944,-3.275,-3.3077,-3.3091,-3.3103,-3.3293,-3.3324,-3.3351,0,0,0,0,0,-3.292,-3.305,-3.2994,-3.3002,-3.3014,-3.3061,-3.3062,-3.298,-3.2895,-3.2953,-3.2911,-3.282,-3.293,-3.2853,-3.2863,-3.2958,-3.3071,-3.3087,-3.3102,-3.328,-3.3318,-3.3351,0,0,0,0,0,0,-3.3114,-3.3042,-3.2979,-3.3096,-3.3086,-3.303,-3.3101,-3.3023,-3.3038,-3.302,-3.292,-3.2913,-3.3018,-3.2996,-3.2912,-3.3107,-3.2985,-3.3003,-3.3117,-3.3153,-3.3181,-3.3185,-3.2754,0,0,0,0,0,-3.317,-3.3213,-3.3148,-3.3258,-3.3256,-3.318,-3.3197,-3.3135,-3.3121,-3.3116,-3.308,-3.3071,-3.3103,-3.3127,-3.3153,-3.3289,-3.3279,-3.3359,-3.3388,-3.3412,-3.3429,-3.35,-3.3535,-3.3161,-3.316,-3.316,0,0,-3.3286,-3.3252,-3.3286,-3.3296,-3.328,-3.3329,-3.3177,-3.3235,-3.327,-3.3125,-3.3207,-3.3181,-3.3164,-3.3278,-3.3326,-3.3263,-3.353,-3.3432,-3.3452,-3.3455,-3.352,-3.3555,-3.3587,-3.3171,-3.3169,-3.3167,0,0,-3.3523,-3.3502,-3.359,-3.3578,-3.3556,-3.3504,-3.3526,-3.3482,-3.3458,-3.3538,-3.3431,-3.3472,-3.353,-3.3522,-3.3526,-3.376,-3.3677,-3.3772,-3.3924,-3.3994,-3.4023,-3.4049,-3.4133,-3.4165,-3.3789,-3.3789,-3.379,0,-3.3671,-3.3738,-3.3646,-3.3711,-3.3718,-3.3588,-3.3678,-3.367,-3.366,-3.3669,-3.3598,-3.3667,-3.3647,-3.3757,-3.3814,-3.3822,-3.3844,-3.3776,-3.4026,-3.4051,-3.4074,-3.4153,-3.4185,-3.3801,-3.3799,-3.3798,-3.3797,0,-3.3922,-3.397,-3.4044,-3.4035,-3.4051,-3.4128,-3.4049,-3.4077,-3.4013,-3.397,-3.4054,-3.4025,-3.4043,-3.4064,-3.4003,-3.4166,-3.4128,-3.4044,-3.3919,-3.4123,-3.4195,-3.4225,-3.3817,-3.3813,-3.381,-3.3807,0,0,-3.428,-3.4218,-3.4247,-3.4241,-3.4207,-3.4243,-3.4315,-3.4331,-3.4357,-3.4353,-3.4412,-3.4463,-3.4385,-3.4389,-3.4326,-3.4388,-3.4576,-3.4296,-3.4294,-3.435,-3.4755,-3.4819,-3.4856,-3.4521,-3.4526,-3.453,-3.4756,0,-3.4506,-3.4623,-3.4543,-3.4674,-3.4717,-3.4594,-3.4656,-3.4643,-3.4605,-3.4637,-3.4594,-3.4633,-3.4526,-3.4528,-3.4583,-3.4542,-3.4656,-3.4524,-3.4575,-3.4578,-3.4584,-3.4893,-3.4961,-3.5176,-3.4784,-3.4789,-3.4792,0,-3.4786,-3.4794,-3.4929,-3.4886,-3.4901,-3.4958,-3.4966,-3.4998,-3.4981,-3.4949,-3.4954,-3.4876,-3.4944,-3.4821,-3.4914,-3.4826,-3.4842,-3.4825,-3.4831,-3.4834,-3.4698,-3.4905,-3.5242,-3.5275,-3.4836,-3.4833,-3.4829,0,-3.5035,-3.5078,-3.5164,-3.5163,-3.5115,-3.5158,-3.5141,-3.5117,-3.5132,-3.5139,-3.5148,-3.5165,-3.5174,-3.5189,-3.5118,-3.5035,-3.5221,-3.5092,-3.5197,-3.5199,-3.5242,-3.5241,-3.5588,-3.5253,-3.5252,-3.5251,-3.5251,0,-3.5296,-3.5384,-3.5275,-3.5329,-3.5423,-3.533,-3.5427,-3.5397,-3.5377,-3.5423,-3.5318,-3.5364,-3.5266,-3.5302,-3.5247,-3.5333,-3.5338,-3.5315,-3.5299,-3.5324,-3.5328,-3.5334,-3.5318,-3.526,-3.5258,-3.5256,-3.5255,0,-3.559,-3.552,-3.5606,-3.5553,-3.5542,-3.5614,-3.5569,-3.5617,-3.5571,-3.5631,-3.564,-3.5568,-3.5606,-3.5535,-3.5564,-3.5527,-3.5648,-3.5609,-3.5654,-3.5642,-3.5752,-3.5743,-3.6116,-3.616,-3.5796,-3.58,-3.5803,0,-3.5761,-3.5825,-3.5779,-3.5801,-3.5789,-3.5827,-3.5841,-3.5752,-3.5771,-3.5757,-3.5807,-3.5835,-3.5853,-3.5919,-3.587,-3.5892,-3.5853,-3.5982,-3.5856,-3.5879,-3.5855,-3.5853,-3.5859,-3.6009,-3.6013,-3.6017,-3.602,0,-3.6073,-3.6036,-3.6059,-3.6071,-3.609,-3.6096,-3.6094,-3.6119,-3.6025,-3.6052,-3.6088,-3.6102,-3.6131,-3.6161,-3.6171,-3.6153,-3.6073,-3.606,-3.6085,-3.6112,-3.6136,-3.6125,-3.5725,-3.6052,-3.6048,-3.6046,-3.6044,-3.6043,-3.6311,-3.6362,-3.6337,-3.6367,-3.6356,-3.6357,-3.6399,-3.6358,-3.6386,-3.6401,-3.6347,-3.6396,-3.6377,-3.6382,-3.6374,-3.6412,-3.6354,-3.6391,-3.6401,-3.6411,-3.6429,-3.6129,-3.6413,-3.6412,-3.6411,-3.641,-3.641,0,-3.6618,-3.6595,-3.6624,-3.6623,-3.6648,-3.6566,-3.656,-3.6586,-3.663,-3.6619,-3.6638,-3.668,-3.6708,-3.6663,-3.6683,-3.6723,-3.6686,-3.6732,-3.6728,-3.6726,-3.6479,-3.6455,-3.6761,-3.6761,-3.6761,-3.6761,-3.6761,-3.6761,-3.678,-3.6863,-3.6822,-3.6899,-3.6876,-3.6921,-3.6925,-3.6926,-3.6916,-3.6967,-3.6989,-3.6958,-3.6934,-3.6952,-3.6975,-3.6961,-3.6974,-3.7033,-3.7007,-3.6777,-3.6743,-3.671,-3.6687,-3.7037,-3.7037,-3.7249,-3.7251,-3.7253]},{"header":{"parameterUnit":"m.s-1","parameterCategory":1,"la1":30.2991,"la2":30.254,"lo1":-89.0895,"lo2":-89.0444,"dy":0.0017,"dx":0.0017,"nx":28,"ny":28,"refTime":"2023-10-03T09:00:00:Z","depth":0,"parameterNumber":3,"parameterNumberName":"V-component_of_WINDS"},"data":[0,0,0,0,0,0,0,0,0,0,0,0,0,0,0,0,0,0,0,0,0,0,0,0,0,0,0,0,0,0,0,0,0,0,0,0,0,0,0,0,0,0,0,0,0,0,0,0,0,0,0,0,0,0,0,0,0,0,-1.3283,-1.3284,0,-1.3396,-1.3397,-1.3399,-1.3475,-1.3476,-1.3477,-1.3477,-1.3586,-1.3588,-1.3591,0,0,0,0,0,0,0,0,0,0,0,0,0,-1.3128,-1.313,-1.3283,-1.3285,-1.3286,-1.3396,-1.3397,-1.3399,-1.3475,-1.3476,-1.3477,-1.3477,-1.3585,-1.3588,-1.3591,0,0,0,0,0,0,0,0,0,0,0,0,0,-1.3213,-1.3131,-1.3283,-1.3338,-1.3344,-1.3396,-1.3397,-1.3399,-1.3475,-1.3476,-1.3477,-1.3478,-1.3584,-1.3588,-1.3591,-1.3596,0,0,-1.3602,-1.3603,0,0,0,0,0,0,0,0,-1.3208,-1.3219,-1.3328,-1.3334,-1.3341,-1.3423,-1.3383,-1.3465,-1.3475,-1.3425,-1.3477,-1.3478,-1.353,-1.3538,-1.3558,-1.3601,-1.3605,-1.3602,-1.3604,-1.3606,-1.3607,0,0,0,0,0,0,0,-1.3202,-1.3214,-1.3328,-1.333,-1.3337,-1.3354,-1.3367,-1.3398,-1.3471,-1.3429,-1.3435,-1.3448,-1.3534,-1.3554,-1.3561,-1.3607,-1.3602,-1.3605,-1.3607,-1.3609,-1.3659,-1.3658,0,0,0,0,0,0,-1.3188,-1.3209,-1.3324,-1.3331,-1.3275,-1.3356,-1.3371,-1.3395,-1.3471,-1.3484,-1.3447,-1.3451,-1.3547,-1.3556,-1.3565,-1.3574,-1.3606,-1.3609,-1.3611,-1.3659,-1.3658,-1.3657,0,0,0,0,0,0,-1.3185,-1.3198,-1.3319,-1.3272,-1.3288,-1.3358,-1.3385,-1.3397,-1.3417,-1.3485,-1.3497,-1.3454,-1.3549,-1.356,-1.3588,-1.3579,-1.3611,-1.3614,-1.366,-1.3659,-1.3658,-1.3594,0,0,0,0,0,0,-1.318,-1.3196,-1.32,-1.3271,-1.3291,-1.3342,-1.3384,-1.3399,-1.3424,-1.343,-1.3495,-1.3506,-1.355,-1.3582,-1.3591,-1.3585,-1.3617,-1.3661,-1.366,-1.3658,-1.3597,-1.3591,-1.3585,0,0,0,0,0,-1.3174,-1.3176,-1.32,-1.3213,-1.3297,-1.3342,-1.3353,-1.3405,-1.3423,-1.3426,-1.347,-1.3504,-1.3579,-1.3584,-1.3595,-1.359,-1.3662,-1.366,-1.3658,-1.36,-1.3592,-1.3585,0,0,0,0,0,0,-1.31,-1.3187,-1.3214,-1.3239,-1.3283,-1.3355,-1.3361,-1.3395,-1.3432,-1.3436,-1.3497,-1.3511,-1.3532,-1.3564,-1.3568,-1.3597,-1.3625,-1.3625,-1.3576,-1.3569,-1.3563,-1.3555,-1.362,0,0,0,0,0,-1.3087,-1.3118,-1.3191,-1.3206,-1.3227,-1.329,-1.3311,-1.3348,-1.3394,-1.3412,-1.3458,-1.35,-1.3533,-1.3553,-1.3587,-1.3602,-1.3616,-1.3604,-1.3598,-1.3593,-1.3592,-1.3601,-1.3596,-1.3652,-1.3652,-1.3652,0,0,-1.3059,-1.3111,-1.3126,-1.3193,-1.3231,-1.3259,-1.3305,-1.3333,-1.3354,-1.3416,-1.3446,-1.348,-1.3531,-1.3552,-1.3564,-1.3579,-1.358,-1.359,-1.3586,-1.3588,-1.3598,-1.3593,-1.3588,-1.365,-1.3651,-1.3651,0,0,-1.3024,-1.3067,-1.3084,-1.3122,-1.318,-1.3221,-1.3225,-1.3292,-1.3318,-1.335,-1.3396,-1.3421,-1.3477,-1.3511,-1.3536,-1.3514,-1.3546,-1.3523,-1.3491,-1.35,-1.3495,-1.3492,-1.3482,-1.3478,-1.3522,-1.3522,-1.3522,0,-1.2982,-1.3029,-1.3088,-1.3114,-1.3141,-1.3201,-1.3218,-1.325,-1.3315,-1.3332,-1.3349,-1.342,-1.3458,-1.3488,-1.3483,-1.3501,-1.3506,-1.3515,-1.3492,-1.3488,-1.3486,-1.3478,-1.3474,-1.3519,-1.3519,-1.3519,-1.352,0,-1.2974,-1.3006,-1.3012,-1.3076,-1.3104,-1.3125,-1.3185,-1.3206,-1.324,-1.3279,-1.3309,-1.3358,-1.3403,-1.3413,-1.3445,-1.3447,-1.3454,-1.348,-1.3509,-1.3476,-1.347,-1.3467,-1.3514,-1.3515,-1.3516,-1.3517,0,0,-1.2893,-1.2991,-1.2992,-1.3021,-1.309,-1.3114,-1.3137,-1.3183,-1.3199,-1.3242,-1.3261,-1.3308,-1.3333,-1.336,-1.3398,-1.3405,-1.3383,-1.343,-1.3432,-1.3419,-1.3386,-1.3364,-1.336,-1.3406,-1.3405,-1.3405,-1.3381,0,-1.2867,-1.2915,-1.2968,-1.2996,-1.3025,-1.3082,-1.3102,-1.3145,-1.3182,-1.3211,-1.3251,-1.3283,-1.3314,-1.3331,-1.3341,-1.3383,-1.3377,-1.3386,-1.3422,-1.3423,-1.3406,-1.3357,-1.3335,-1.331,-1.3379,-1.3378,-1.3378,0,-1.2843,-1.2885,-1.2916,-1.2982,-1.2996,-1.3014,-1.306,-1.3087,-1.3136,-1.3163,-1.3194,-1.3235,-1.326,-1.3286,-1.332,-1.3325,-1.3343,-1.3366,-1.3366,-1.337,-1.3397,-1.3358,-1.3303,-1.3298,-1.3375,-1.3375,-1.3375,0,-1.278,-1.2844,-1.2871,-1.2895,-1.2972,-1.2983,-1.3015,-1.3066,-1.309,-1.313,-1.3145,-1.3187,-1.3209,-1.3239,-1.3288,-1.3303,-1.3316,-1.3347,-1.3337,-1.3336,-1.3336,-1.3335,-1.3281,-1.335,-1.335,-1.335,-1.335,0,-1.2744,-1.276,-1.2844,-1.286,-1.2879,-1.294,-1.2957,-1.2994,-1.3039,-1.3061,-1.3113,-1.3133,-1.3198,-1.3225,-1.3264,-1.3285,-1.3295,-1.3315,-1.3325,-1.331,-1.3307,-1.3321,-1.3324,-1.3349,-1.3349,-1.3349,-1.335,0,-1.2676,-1.2733,-1.2766,-1.2837,-1.2856,-1.2867,-1.2927,-1.2944,-1.2985,-1.3013,-1.3023,-1.3086,-1.3121,-1.3174,-1.3223,-1.3249,-1.3264,-1.3281,-1.3247,-1.3253,-1.324,-1.324,-1.3193,-1.3189,-1.326,-1.3259,-1.3259,0,-1.2649,-1.2663,-1.2737,-1.2757,-1.2789,-1.282,-1.2846,-1.2906,-1.293,-1.2987,-1.2996,-1.3035,-1.307,-1.3122,-1.317,-1.3208,-1.3226,-1.3207,-1.3231,-1.3216,-1.3224,-1.3222,-1.3223,-1.32,-1.3199,-1.3198,-1.3197,0,-1.2594,-1.2622,-1.2658,-1.2703,-1.2733,-1.2771,-1.2812,-1.2825,-1.2893,-1.2917,-1.2954,-1.2981,-1.3033,-1.307,-1.3115,-1.3146,-1.3182,-1.319,-1.3189,-1.3173,-1.3152,-1.3162,-1.323,-1.319,-1.3191,-1.3191,-1.3192,-1.3192,-1.2545,-1.256,-1.2614,-1.2652,-1.269,-1.2727,-1.2746,-1.279,-1.2823,-1.2871,-1.2905,-1.2939,-1.2987,-1.3052,-1.3081,-1.3107,-1.3123,-1.3123,-1.3122,-1.3121,-1.3115,-1.315,-1.3116,-1.3116,-1.3116,-1.3117,-1.3117,0,-1.2491,-1.253,-1.2564,-1.2621,-1.265,-1.2685,-1.2732,-1.2753,-1.2784,-1.2827,-1.286,-1.2902,-1.2939,-1.2991,-1.3031,-1.3042,-1.3059,-1.305,-1.3049,-1.3055,-1.3099,-1.3095,-1.3035,-1.3035,-1.3035,-1.3035,-1.3035,-1.3035,-1.2467,-1.2494,-1.2528,-1.2574,-1.2612,-1.2648,-1.2671,-1.2705,-1.274,-1.2785,-1.2817,-1.2852,-1.2898,-1.2942,-1.2976,-1.299,-1.3002,-1.2987,-1.3006,-1.3045,-1.3052,-1.3059,-1.3056,-1.2989,-1.2989,-1.296,-1.296,-1.2959]}]]